Year,Month,Day,Hour,Minute,Value (Times are PST for temperature in C)
2016,08,27,00,00,20.50
2016,08,27,00,01,20.50
2016,08,27,00,02,20.40
2016,08,27,00,03,20.40
2016,08,27,00,04,20.30
2016,08,27,00,05,20.20
2016,08,27,00,06,20.20
2016,08,27,00,07,20.20
2016,08,27,00,08,20.20
2016,08,27,00,09,20.10
2016,08,27,00,10,20.00
2016,08,27,00,11,19.90
2016,08,27,00,12,19.90
2016,08,27,00,13,19.80
2016,08,27,00,14,19.70
2016,08,27,00,15,19.70
2016,08,27,00,16,19.60
2016,08,27,00,17,19.50
2016,08,27,00,18,19.50
2016,08,27,00,19,19.40
2016,08,27,00,20,19.40
2016,08,27,00,21,19.30
2016,08,27,00,22,19.30
2016,08,27,00,23,19.20
2016,08,27,00,24,19.20
2016,08,27,00,25,19.20
2016,08,27,00,26,19.10
2016,08,27,00,27,19.10
2016,08,27,00,28,19.10
2016,08,27,00,29,19.10
2016,08,27,00,30,19.10
2016,08,27,00,31,19.10
2016,08,27,00,32,19.00
2016,08,27,00,33,18.90
2016,08,27,00,34,18.90
2016,08,27,00,35,18.90
2016,08,27,00,36,18.90
2016,08,27,00,37,18.90
2016,08,27,00,38,18.90
2016,08,27,00,39,18.90
2016,08,27,00,40,18.80
2016,08,27,00,41,18.80
2016,08,27,00,42,18.80
2016,08,27,00,43,18.80
2016,08,27,00,44,18.70
2016,08,27,00,45,18.70
2016,08,27,00,46,18.70
2016,08,27,00,47,18.60
2016,08,27,00,48,18.60
2016,08,27,00,49,18.60
2016,08,27,00,50,18.60
2016,08,27,00,51,18.60
2016,08,27,00,52,18.60
2016,08,27,00,53,18.50
2016,08,27,00,54,18.50
2016,08,27,00,55,18.50
2016,08,27,00,56,18.50
2016,08,27,00,57,18.50
2016,08,27,00,58,18.50
2016,08,27,00,59,18.40
2016,08,27,01,00,18.40
2016,08,27,01,01,18.40
2016,08,27,01,02,18.40
2016,08,27,01,03,18.30
2016,08,27,01,04,18.30
2016,08,27,01,05,18.30
2016,08,27,01,06,18.30
2016,08,27,01,07,18.20
2016,08,27,01,08,18.20
2016,08,27,01,09,18.20
2016,08,27,01,10,18.20
2016,08,27,01,11,18.20
2016,08,27,01,12,18.10
2016,08,27,01,13,18.10
2016,08,27,01,14,18.10
2016,08,27,01,15,18.10
2016,08,27,01,16,18.10
2016,08,27,01,17,17.90
2016,08,27,01,18,17.90
2016,08,27,01,19,17.90
2016,08,27,01,20,17.90
2016,08,27,01,21,17.90
2016,08,27,01,22,17.90
2016,08,27,01,23,17.90
2016,08,27,01,24,17.90
2016,08,27,01,25,17.90
2016,08,27,01,26,17.80
2016,08,27,01,27,17.80
2016,08,27,01,28,17.80
2016,08,27,01,29,17.80
2016,08,27,01,30,17.70
2016,08,27,01,31,17.70
2016,08,27,01,32,17.70
2016,08,27,01,33,17.70
2016,08,27,01,34,17.70
2016,08,27,01,35,17.70
2016,08,27,01,36,17.70
2016,08,27,01,37,17.70
2016,08,27,01,38,17.70
2016,08,27,01,39,17.70
2016,08,27,01,40,17.60
2016,08,27,01,41,17.60
2016,08,27,01,42,17.60
2016,08,27,01,43,17.60
2016,08,27,01,44,17.60
2016,08,27,01,45,17.50
2016,08,27,01,46,17.50
2016,08,27,01,47,17.50
2016,08,27,01,48,17.50
2016,08,27,01,49,17.50
2016,08,27,01,50,17.40
2016,08,27,01,51,17.40
2016,08,27,01,52,17.40
2016,08,27,01,53,17.40
2016,08,27,01,54,17.40
2016,08,27,01,55,17.40
2016,08,27,01,56,17.40
2016,08,27,01,57,17.40
2016,08,27,01,58,17.40
2016,08,27,01,59,17.40
2016,08,27,02,00,17.40
2016,08,27,02,01,17.40
2016,08,27,02,02,17.40
2016,08,27,02,03,17.40
2016,08,27,02,04,17.40
2016,08,27,02,05,17.40
2016,08,27,02,06,17.40
2016,08,27,02,07,17.30
2016,08,27,02,08,17.30
2016,08,27,02,09,17.30
2016,08,27,02,10,17.30
2016,08,27,02,11,17.30
2016,08,27,02,12,17.30
2016,08,27,02,13,17.30
2016,08,27,02,14,17.30
2016,08,27,02,15,17.30
2016,08,27,02,16,17.30
2016,08,27,02,17,17.30
2016,08,27,02,18,17.30
2016,08,27,02,19,17.30
2016,08,27,02,20,17.30
2016,08,27,02,21,17.30
2016,08,27,02,22,17.20
2016,08,27,02,23,17.20
2016,08,27,02,24,17.20
2016,08,27,02,25,17.20
2016,08,27,02,26,17.10
2016,08,27,02,27,17.10
2016,08,27,02,28,17.10
2016,08,27,02,29,17.10
2016,08,27,02,30,17.10
2016,08,27,02,31,17.10
2016,08,27,02,32,17.00
2016,08,27,02,33,17.00
2016,08,27,02,34,17.00
2016,08,27,02,35,17.00
2016,08,27,02,36,17.00
2016,08,27,02,37,17.00
2016,08,27,02,38,17.00
2016,08,27,02,39,17.00
2016,08,27,02,40,17.00
2016,08,27,02,41,17.00
2016,08,27,02,42,17.00
2016,08,27,02,43,17.00
2016,08,27,02,44,16.90
2016,08,27,02,45,16.90
2016,08,27,02,46,16.90
2016,08,27,02,47,16.90
2016,08,27,02,48,16.90
2016,08,27,02,49,16.90
2016,08,27,02,50,16.80
2016,08,27,02,51,16.80
2016,08,27,02,52,16.80
2016,08,27,02,53,16.70
2016,08,27,02,54,16.70
2016,08,27,02,55,16.70
2016,08,27,02,56,16.70
2016,08,27,02,57,16.70
2016,08,27,02,58,16.70
2016,08,27,02,59,16.60
2016,08,27,03,00,16.60
2016,08,27,03,01,16.60
2016,08,27,03,02,16.60
2016,08,27,03,03,16.60
2016,08,27,03,04,16.60
2016,08,27,03,05,16.60
2016,08,27,03,06,16.60
2016,08,27,03,07,16.60
2016,08,27,03,08,16.60
2016,08,27,03,09,16.60
2016,08,27,03,10,16.60
2016,08,27,03,11,16.60
2016,08,27,03,12,16.60
2016,08,27,03,13,16.60
2016,08,27,03,14,16.60
2016,08,27,03,15,16.60
2016,08,27,03,16,16.60
2016,08,27,03,17,16.50
2016,08,27,03,18,16.40
2016,08,27,03,19,16.40
2016,08,27,03,20,16.40
2016,08,27,03,21,16.40
2016,08,27,03,22,16.40
2016,08,27,03,23,16.40
2016,08,27,03,24,16.40
2016,08,27,03,25,16.30
2016,08,27,03,26,16.30
2016,08,27,03,27,16.30
2016,08,27,03,28,16.30
2016,08,27,03,29,16.20
2016,08,27,03,30,16.20
2016,08,27,03,31,16.20
2016,08,27,03,32,16.20
2016,08,27,03,33,16.10
2016,08,27,03,34,16.10
2016,08,27,03,35,15.90
2016,08,27,03,36,15.80
2016,08,27,03,37,15.80
2016,08,27,03,38,15.80
2016,08,27,03,39,15.70
2016,08,27,03,40,15.60
2016,08,27,03,41,15.60
2016,08,27,03,42,15.50
2016,08,27,03,43,15.50
2016,08,27,03,44,15.40
2016,08,27,03,45,15.30
2016,08,27,03,46,15.30
2016,08,27,03,47,15.30
2016,08,27,03,48,15.20
2016,08,27,03,49,15.20
2016,08,27,03,50,15.10
2016,08,27,03,51,15.10
2016,08,27,03,52,15.10
2016,08,27,03,53,15.00
2016,08,27,03,54,15.00
2016,08,27,03,55,14.90
2016,08,27,03,56,14.90
2016,08,27,03,57,14.90
2016,08,27,03,58,14.80
2016,08,27,03,59,14.80
2016,08,27,04,00,14.80
2016,08,27,04,01,14.80
2016,08,27,04,02,14.70
2016,08,27,04,03,14.70
2016,08,27,04,04,14.70
2016,08,27,04,05,14.60
2016,08,27,04,06,14.60
2016,08,27,04,07,14.60
2016,08,27,04,08,14.60
2016,08,27,04,09,14.60
2016,08,27,04,10,14.50
2016,08,27,04,11,14.50
2016,08,27,04,12,14.50
2016,08,27,04,13,14.50
2016,08,27,04,14,14.50
2016,08,27,04,15,14.50
2016,08,27,04,16,14.50
2016,08,27,04,17,14.40
2016,08,27,04,18,14.40
2016,08,27,04,19,14.40
2016,08,27,04,20,14.40
2016,08,27,04,21,14.40
2016,08,27,04,22,14.30
2016,08,27,04,23,14.30
2016,08,27,04,24,14.30
2016,08,27,04,25,14.30
2016,08,27,04,26,14.30
2016,08,27,04,27,14.20
2016,08,27,04,28,14.20
2016,08,27,04,29,14.20
2016,08,27,04,30,14.20
2016,08,27,04,31,14.20
2016,08,27,04,32,14.20
2016,08,27,04,33,14.20
2016,08,27,04,34,14.20
2016,08,27,04,35,14.20
2016,08,27,04,36,14.20
2016,08,27,04,37,14.20
2016,08,27,04,38,14.20
2016,08,27,04,39,14.20
2016,08,27,04,40,14.20
2016,08,27,04,41,14.20
2016,08,27,04,42,14.20
2016,08,27,04,43,14.20
2016,08,27,04,44,14.20
2016,08,27,04,45,14.20
2016,08,27,04,46,14.20
2016,08,27,04,47,14.20
2016,08,27,04,48,14.20
2016,08,27,04,49,14.10
2016,08,27,04,50,14.10
2016,08,27,04,51,14.10
2016,08,27,04,52,14.10
2016,08,27,04,53,14.10
2016,08,27,04,54,14.10
2016,08,27,04,55,14.10
2016,08,27,04,56,14.10
2016,08,27,04,57,14.10
2016,08,27,04,58,14.00
2016,08,27,04,59,14.00
2016,08,27,05,00,14.00
2016,08,27,05,01,14.00
2016,08,27,05,02,14.00
2016,08,27,05,03,13.90
2016,08,27,05,04,13.90
2016,08,27,05,05,13.90
2016,08,27,05,06,13.90
2016,08,27,05,07,13.90
2016,08,27,05,08,13.90
2016,08,27,05,09,13.90
2016,08,27,05,10,13.90
2016,08,27,05,11,13.90
2016,08,27,05,12,13.80
2016,08,27,05,13,13.80
2016,08,27,05,14,13.80
2016,08,27,05,15,13.80
2016,08,27,05,16,13.80
2016,08,27,05,17,13.80
2016,08,27,05,18,13.80
2016,08,27,05,19,13.80
2016,08,27,05,20,13.80
2016,08,27,05,21,13.80
2016,08,27,05,22,13.80
2016,08,27,05,23,13.80
2016,08,27,05,24,13.80
2016,08,27,05,25,13.70
2016,08,27,05,26,13.70
2016,08,27,05,27,13.70
2016,08,27,05,28,13.70
2016,08,27,05,29,13.70
2016,08,27,05,30,13.70
2016,08,27,05,31,13.70
2016,08,27,05,32,13.70
2016,08,27,05,33,13.70
2016,08,27,05,34,13.80
2016,08,27,05,35,13.80
2016,08,27,05,36,13.80
2016,08,27,05,37,13.80
2016,08,27,05,38,13.80
2016,08,27,05,39,13.80
2016,08,27,05,40,13.80
2016,08,27,05,41,13.80
2016,08,27,05,42,13.80
2016,08,27,05,43,13.80
2016,08,27,05,44,13.80
2016,08,27,05,45,13.70
2016,08,27,05,46,13.70
2016,08,27,05,47,13.70
2016,08,27,05,48,13.70
2016,08,27,05,49,13.80
2016,08,27,05,50,13.80
2016,08,27,05,51,13.80
2016,08,27,05,52,13.90
2016,08,27,05,53,13.90
2016,08,27,05,54,14.00
2016,08,27,05,55,14.00
2016,08,27,05,56,14.10
2016,08,27,05,57,14.10
2016,08,27,05,58,14.20
2016,08,27,05,59,14.20
2016,08,27,06,00,14.30
2016,08,27,06,01,14.40
2016,08,27,06,02,14.50
2016,08,27,06,03,14.60
2016,08,27,06,04,14.60
2016,08,27,06,05,14.70
2016,08,27,06,06,14.80
2016,08,27,06,07,14.80
2016,08,27,06,08,15.00
2016,08,27,06,09,15.10
2016,08,27,06,10,15.20
2016,08,27,06,11,15.40
2016,08,27,06,12,15.60
2016,08,27,06,13,15.70
2016,08,27,06,14,15.80
2016,08,27,06,15,15.90
2016,08,27,06,16,15.90
2016,08,27,06,17,16.00
2016,08,27,06,18,16.10
2016,08,27,06,19,16.20
2016,08,27,06,20,16.40
2016,08,27,06,21,16.50
2016,08,27,06,22,16.70
2016,08,27,06,23,16.80
2016,08,27,06,24,17.00
2016,08,27,06,25,17.00
2016,08,27,06,26,17.10
2016,08,27,06,27,17.20
2016,08,27,06,28,17.20
2016,08,27,06,29,17.10
2016,08,27,06,30,17.00
2016,08,27,06,31,16.90
2016,08,27,06,32,16.80
2016,08,27,06,33,16.60
2016,08,27,06,34,16.50
2016,08,27,06,35,16.30
2016,08,27,06,36,16.20
2016,08,27,06,37,16.10
2016,08,27,06,38,16.00
2016,08,27,06,39,15.90
2016,08,27,06,40,15.80
2016,08,27,06,41,15.80
2016,08,27,06,42,15.70
2016,08,27,06,43,15.70
2016,08,27,06,44,15.70
2016,08,27,06,45,15.70
2016,08,27,06,46,15.70
2016,08,27,06,47,15.70
2016,08,27,06,48,15.80
2016,08,27,06,49,15.80
2016,08,27,06,50,15.90
2016,08,27,06,51,16.00
2016,08,27,06,52,16.10
2016,08,27,06,53,16.30
2016,08,27,06,54,16.40
2016,08,27,06,55,16.50
2016,08,27,06,56,16.60
2016,08,27,06,57,16.70
2016,08,27,06,58,16.80
2016,08,27,06,59,16.90
2016,08,27,07,00,16.90
2016,08,27,07,01,17.00
2016,08,27,07,02,17.00
2016,08,27,07,03,17.10
2016,08,27,07,04,17.20
2016,08,27,07,05,17.20
2016,08,27,07,06,17.30
2016,08,27,07,07,17.30
2016,08,27,07,08,17.30
2016,08,27,07,09,17.30
2016,08,27,07,10,17.30
2016,08,27,07,11,17.30
2016,08,27,07,12,17.30
2016,08,27,07,13,17.30
2016,08,27,07,14,17.30
2016,08,27,07,15,17.30
2016,08,27,07,16,17.30
2016,08,27,07,17,17.30
2016,08,27,07,18,17.30
2016,08,27,07,19,17.30
2016,08,27,07,20,17.30
2016,08,27,07,21,17.30
2016,08,27,07,22,17.30
2016,08,27,07,23,17.30
2016,08,27,07,24,17.40
2016,08,27,07,25,17.40
2016,08,27,07,26,17.40
2016,08,27,07,27,17.40
2016,08,27,07,28,17.40
2016,08,27,07,29,17.50
2016,08,27,07,30,17.50
2016,08,27,07,31,17.50
2016,08,27,07,32,17.50
2016,08,27,07,33,17.60
2016,08,27,07,34,17.60
2016,08,27,07,35,17.60
2016,08,27,07,36,17.60
2016,08,27,07,37,17.60
2016,08,27,07,38,17.60
2016,08,27,07,39,17.70
2016,08,27,07,40,17.70
2016,08,27,07,41,17.70
2016,08,27,07,42,17.70
2016,08,27,07,43,17.70
2016,08,27,07,44,17.80
2016,08,27,07,45,17.80
2016,08,27,07,46,17.80
2016,08,27,07,47,17.90
2016,08,27,07,48,17.90
2016,08,27,07,49,17.90
2016,08,27,07,50,17.90
2016,08,27,07,51,17.90
2016,08,27,07,52,17.90
2016,08,27,07,53,17.90
2016,08,27,07,54,17.90
2016,08,27,07,55,18.00
2016,08,27,07,56,18.10
2016,08,27,07,57,18.10
2016,08,27,07,58,18.10
2016,08,27,07,59,18.10
2016,08,27,08,00,18.20
2016,08,27,08,01,18.20
2016,08,27,08,02,18.20
2016,08,27,08,03,18.20
2016,08,27,08,04,18.20
2016,08,27,08,05,18.20
2016,08,27,08,06,18.20
2016,08,27,08,07,18.20
2016,08,27,08,08,18.20
2016,08,27,08,09,18.20
2016,08,27,08,10,18.30
2016,08,27,08,11,18.30
2016,08,27,08,12,18.40
2016,08,27,08,13,18.40
2016,08,27,08,14,18.40
2016,08,27,08,15,18.40
2016,08,27,08,16,18.50
2016,08,27,08,17,18.50
2016,08,27,08,18,18.50
2016,08,27,08,19,18.50
2016,08,27,08,20,18.50
2016,08,27,08,21,18.60
2016,08,27,08,22,18.60
2016,08,27,08,23,18.60
2016,08,27,08,24,18.70
2016,08,27,08,25,18.70
2016,08,27,08,26,18.80
2016,08,27,08,27,18.80
2016,08,27,08,28,18.90
2016,08,27,08,29,18.90
2016,08,27,08,30,18.90
2016,08,27,08,31,18.90
2016,08,27,08,32,19.00
2016,08,27,08,33,19.10
2016,08,27,08,34,19.10
2016,08,27,08,35,19.20
2016,08,27,08,36,19.20
2016,08,27,08,37,19.30
2016,08,27,08,38,19.30
2016,08,27,08,39,19.30
2016,08,27,08,40,19.40
2016,08,27,08,41,19.40
2016,08,27,08,42,19.50
2016,08,27,08,43,19.60
2016,08,27,08,44,19.60
2016,08,27,08,45,19.70
2016,08,27,08,46,19.70
2016,08,27,08,47,19.70
2016,08,27,08,48,19.70
2016,08,27,08,49,19.70
2016,08,27,08,50,19.70
2016,08,27,08,51,19.80
2016,08,27,08,52,19.80
2016,08,27,08,53,19.80
2016,08,27,08,54,19.80
2016,08,27,08,55,19.70
2016,08,27,08,56,19.70
2016,08,27,08,57,19.70
2016,08,27,08,58,19.80
2016,08,27,08,59,19.80
2016,08,27,09,00,19.90
2016,08,27,09,01,19.90
2016,08,27,09,02,19.90
2016,08,27,09,03,19.90
2016,08,27,09,04,19.90
2016,08,27,09,05,19.90
2016,08,27,09,06,19.90
2016,08,27,09,07,19.90
2016,08,27,09,08,19.90
2016,08,27,09,09,19.90
2016,08,27,09,10,19.90
2016,08,27,09,11,19.90
2016,08,27,09,12,19.90
2016,08,27,09,13,19.90
2016,08,27,09,14,19.90
2016,08,27,09,15,19.90
2016,08,27,09,16,19.90
2016,08,27,09,17,19.90
2016,08,27,09,18,19.90
2016,08,27,09,19,20.00
2016,08,27,09,20,20.10
2016,08,27,09,21,20.10
2016,08,27,09,22,20.20
2016,08,27,09,23,20.20
2016,08,27,09,24,20.20
2016,08,27,09,25,20.20
2016,08,27,09,26,20.20
2016,08,27,09,27,20.20
2016,08,27,09,28,20.20
2016,08,27,09,29,20.10
2016,08,27,09,30,20.10
2016,08,27,09,31,20.10
2016,08,27,09,32,20.10
2016,08,27,09,33,20.10
2016,08,27,09,34,20.10
2016,08,27,09,35,20.10
2016,08,27,09,36,20.10
2016,08,27,09,37,20.10
2016,08,27,09,38,20.10
2016,08,27,09,39,20.10
2016,08,27,09,40,20.10
2016,08,27,09,41,20.10
2016,08,27,09,42,20.10
2016,08,27,09,43,20.10
2016,08,27,09,44,20.10
2016,08,27,09,45,20.10
2016,08,27,09,46,20.10
2016,08,27,09,47,20.10
2016,08,27,09,48,20.20
2016,08,27,09,49,20.20
2016,08,27,09,50,20.20
2016,08,27,09,51,20.30
2016,08,27,09,52,20.40
2016,08,27,09,53,20.50
2016,08,27,09,54,20.50
2016,08,27,09,55,20.50
2016,08,27,09,56,20.50
2016,08,27,09,57,20.50
2016,08,27,09,58,20.50
2016,08,27,09,59,20.50
2016,08,27,10,00,20.40
2016,08,27,10,01,20.40
2016,08,27,10,02,20.30
2016,08,27,10,03,20.30
2016,08,27,10,04,20.20
2016,08,27,10,05,20.20
2016,08,27,10,06,20.20
2016,08,27,10,07,20.20
2016,08,27,10,08,20.10
2016,08,27,10,09,20.00
2016,08,27,10,10,19.90
2016,08,27,10,11,19.90
2016,08,27,10,12,19.80
2016,08,27,10,13,19.80
2016,08,27,10,14,19.80
2016,08,27,10,15,19.80
2016,08,27,10,16,19.80
2016,08,27,10,17,19.80
2016,08,27,10,18,19.80
2016,08,27,10,19,19.80
2016,08,27,10,20,19.80
2016,08,27,10,21,19.80
2016,08,27,10,22,19.80
2016,08,27,10,23,19.80
2016,08,27,10,24,19.80
2016,08,27,10,25,19.70
2016,08,27,10,26,19.70
2016,08,27,10,27,19.60
2016,08,27,10,28,19.60
2016,08,27,10,29,19.50
2016,08,27,10,30,19.50
2016,08,27,10,31,19.40
2016,08,27,10,32,19.40
2016,08,27,10,33,19.40
2016,08,27,10,34,19.40
2016,08,27,10,35,19.30
2016,08,27,10,36,19.30
2016,08,27,10,37,19.30
2016,08,27,10,38,19.30
2016,08,27,10,39,19.20
2016,08,27,10,40,19.20
2016,08,27,10,41,19.20
2016,08,27,10,42,19.10
2016,08,27,10,43,19.10
2016,08,27,10,44,19.10
2016,08,27,10,45,19.10
2016,08,27,10,46,19.10
2016,08,27,10,47,19.10
2016,08,27,10,48,19.10
2016,08,27,10,49,19.10
2016,08,27,10,50,19.10
2016,08,27,10,51,19.10
2016,08,27,10,52,19.20
2016,08,27,10,53,19.20
2016,08,27,10,54,19.30
2016,08,27,10,55,19.30
2016,08,27,10,56,19.40
2016,08,27,10,57,19.50
2016,08,27,10,58,19.60
2016,08,27,10,59,19.60
2016,08,27,11,00,19.60
2016,08,27,11,01,19.70
2016,08,27,11,02,19.80
2016,08,27,11,03,19.80
2016,08,27,11,04,19.80
2016,08,27,11,05,19.90
2016,08,27,11,06,19.90
2016,08,27,11,07,19.90
2016,08,27,11,08,19.90
2016,08,27,11,09,19.90
2016,08,27,11,10,20.10
2016,08,27,11,11,20.10
2016,08,27,11,12,20.20
2016,08,27,11,13,20.20
2016,08,27,11,14,20.20
2016,08,27,11,15,20.30
2016,08,27,11,16,20.40
2016,08,27,11,17,20.40
2016,08,27,11,18,20.50
2016,08,27,11,19,20.50
2016,08,27,11,20,20.50
2016,08,27,11,21,20.60
2016,08,27,11,22,20.60
2016,08,27,11,23,20.60
2016,08,27,11,24,20.60
2016,08,27,11,25,20.60
2016,08,27,11,26,20.70
2016,08,27,11,27,20.80
2016,08,27,11,28,20.90
2016,08,27,11,29,20.90
2016,08,27,11,30,21.00
2016,08,27,11,31,21.00
2016,08,27,11,32,21.10
2016,08,27,11,33,21.10
2016,08,27,11,34,21.10
2016,08,27,11,35,21.10
2016,08,27,11,36,21.10
2016,08,27,11,37,21.10
2016,08,27,11,38,21.10
2016,08,27,11,39,21.00
2016,08,27,11,40,20.90
2016,08,27,11,41,20.90
2016,08,27,11,42,21.00
2016,08,27,11,43,21.10
2016,08,27,11,44,21.20
2016,08,27,11,45,21.30
2016,08,27,11,46,21.40
2016,08,27,11,47,21.50
2016,08,27,11,48,21.60
2016,08,27,11,49,21.50
2016,08,27,11,50,21.40
2016,08,27,11,51,21.40
2016,08,27,11,52,21.40
2016,08,27,11,53,21.30
2016,08,27,11,54,21.30
2016,08,27,11,55,21.30
2016,08,27,11,56,21.30
2016,08,27,11,57,21.30
2016,08,27,11,58,21.30
2016,08,27,11,59,21.30
2016,08,27,12,00,21.30
2016,08,27,12,01,21.30
2016,08,27,12,02,21.30
2016,08,27,12,03,21.30
2016,08,27,12,04,21.30
2016,08,27,12,05,21.30
2016,08,27,12,06,21.20
2016,08,27,12,07,21.10
2016,08,27,12,08,21.10
2016,08,27,12,09,21.00
2016,08,27,12,10,21.00
2016,08,27,12,11,21.00
2016,08,27,12,12,20.90
2016,08,27,12,13,20.80
2016,08,27,12,14,20.70
2016,08,27,12,15,20.60
2016,08,27,12,16,20.60
2016,08,27,12,17,20.50
2016,08,27,12,18,20.50
2016,08,27,12,19,20.50
2016,08,27,12,20,20.40
2016,08,27,12,21,20.30
2016,08,27,12,22,20.30
2016,08,27,12,23,20.20
2016,08,27,12,24,20.20
2016,08,27,12,25,20.20
2016,08,27,12,26,20.20
2016,08,27,12,27,20.20
2016,08,27,12,28,20.10
2016,08,27,12,29,20.00
2016,08,27,12,30,19.90
2016,08,27,12,31,19.90
2016,08,27,12,32,19.80
2016,08,27,12,33,19.80
2016,08,27,12,34,19.70
2016,08,27,12,35,19.70
2016,08,27,12,36,19.70
2016,08,27,12,37,19.70
2016,08,27,12,38,19.70
2016,08,27,12,39,19.70
2016,08,27,12,40,19.70
2016,08,27,12,41,19.80
2016,08,27,12,42,19.80
2016,08,27,12,43,19.90
2016,08,27,12,44,19.90
2016,08,27,12,45,19.90
2016,08,27,12,46,19.90
2016,08,27,12,47,19.90
2016,08,27,12,48,20.00
2016,08,27,12,49,20.10
2016,08,27,12,50,20.20
2016,08,27,12,51,20.20
2016,08,27,12,52,20.20
2016,08,27,12,53,20.40
2016,08,27,12,54,20.50
2016,08,27,12,55,20.50
2016,08,27,12,56,20.60
2016,08,27,12,57,20.70
2016,08,27,12,58,20.80
2016,08,27,12,59,20.80
2016,08,27,13,00,20.90
2016,08,27,13,01,20.90
2016,08,27,13,02,20.90
2016,08,27,13,03,20.80
2016,08,27,13,04,20.70
2016,08,27,13,05,20.60
2016,08,27,13,06,20.50
2016,08,27,13,07,20.50
2016,08,27,13,08,20.50
2016,08,27,13,09,20.60
2016,08,27,13,10,20.60
2016,08,27,13,11,20.60
2016,08,27,13,12,20.60
2016,08,27,13,13,20.60
2016,08,27,13,14,20.70
2016,08,27,13,15,20.70
2016,08,27,13,16,20.70
2016,08,27,13,17,20.60
2016,08,27,13,18,20.60
2016,08,27,13,19,20.60
2016,08,27,13,20,20.50
2016,08,27,13,21,20.40
2016,08,27,13,22,20.20
2016,08,27,13,23,20.20
2016,08,27,13,24,20.10
2016,08,27,13,25,20.00
2016,08,27,13,26,19.90
2016,08,27,13,27,19.90
2016,08,27,13,28,20.00
2016,08,27,13,29,20.10
2016,08,27,13,30,20.20
2016,08,27,13,31,20.30
2016,08,27,13,32,20.30
2016,08,27,13,33,20.30
2016,08,27,13,34,20.30
2016,08,27,13,35,20.20
2016,08,27,13,36,20.20
2016,08,27,13,37,20.30
2016,08,27,13,38,20.30
2016,08,27,13,39,20.40
2016,08,27,13,40,20.40
2016,08,27,13,41,20.40
2016,08,27,13,42,20.30
2016,08,27,13,43,20.40
2016,08,27,13,44,20.40
2016,08,27,13,45,20.30
2016,08,27,13,46,20.30
2016,08,27,13,47,20.20
2016,08,27,13,48,20.10
2016,08,27,13,49,20.10
2016,08,27,13,50,20.10
2016,08,27,13,51,20.10
2016,08,27,13,52,19.90
2016,08,27,13,53,19.90
2016,08,27,13,54,19.90
2016,08,27,13,55,19.90
2016,08,27,13,56,19.80
2016,08,27,13,57,19.70
2016,08,27,13,58,19.60
2016,08,27,13,59,19.60
2016,08,27,14,00,19.50
2016,08,27,14,01,19.60
2016,08,27,14,02,19.60
2016,08,27,14,03,19.70
2016,08,27,14,04,19.70
2016,08,27,14,05,19.70
2016,08,27,14,06,19.70
2016,08,27,14,07,19.70
2016,08,27,14,08,19.70
2016,08,27,14,09,19.70
2016,08,27,14,10,19.70
2016,08,27,14,11,19.80
2016,08,27,14,12,19.80
2016,08,27,14,13,19.70
2016,08,27,14,14,19.70
2016,08,27,14,15,19.70
2016,08,27,14,16,19.70
2016,08,27,14,17,19.60
2016,08,27,14,18,19.60
2016,08,27,14,19,19.70
2016,08,27,14,20,19.60
2016,08,27,14,21,19.70
2016,08,27,14,22,19.70
2016,08,27,14,23,19.80
2016,08,27,14,24,19.80
2016,08,27,14,25,19.90
2016,08,27,14,26,19.90
2016,08,27,14,27,19.90
2016,08,27,14,28,19.90
2016,08,27,14,29,19.90
2016,08,27,14,30,19.90
2016,08,27,14,31,19.90
2016,08,27,14,32,19.90
2016,08,27,14,33,19.90
2016,08,27,14,34,20.10
2016,08,27,14,35,20.20
2016,08,27,14,36,20.20
2016,08,27,14,37,20.20
2016,08,27,14,38,20.30
2016,08,27,14,39,20.30
2016,08,27,14,40,20.30
2016,08,27,14,41,20.20
2016,08,27,14,42,20.20
2016,08,27,14,43,20.20
2016,08,27,14,44,20.20
2016,08,27,14,45,20.20
2016,08,27,14,46,20.20
2016,08,27,14,47,20.20
2016,08,27,14,48,20.20
2016,08,27,14,49,20.20
2016,08,27,14,50,20.20
2016,08,27,14,51,20.20
2016,08,27,14,52,20.30
2016,08,27,14,53,20.30
2016,08,27,14,54,20.40
2016,08,27,14,55,20.40
2016,08,27,14,56,20.50
2016,08,27,14,57,20.60
2016,08,27,14,58,20.70
2016,08,27,14,59,20.70
2016,08,27,15,00,20.80
2016,08,27,15,01,20.70
2016,08,27,15,02,20.60
2016,08,27,15,03,20.50
2016,08,27,15,04,20.50
2016,08,27,15,05,20.50
2016,08,27,15,06,20.60
2016,08,27,15,07,20.60
2016,08,27,15,08,20.60
2016,08,27,15,09,20.60
2016,08,27,15,10,20.60
2016,08,27,15,11,20.60
2016,08,27,15,12,20.60
2016,08,27,15,13,20.60
2016,08,27,15,14,20.50
2016,08,27,15,15,20.40
2016,08,27,15,16,20.30
2016,08,27,15,17,20.20
2016,08,27,15,18,20.20
2016,08,27,15,19,20.20
2016,08,27,15,20,20.20
2016,08,27,15,21,20.20
2016,08,27,15,22,20.20
2016,08,27,15,23,20.20
2016,08,27,15,24,20.20
2016,08,27,15,25,20.20
2016,08,27,15,26,20.20
2016,08,27,15,27,20.20
2016,08,27,15,28,20.20
2016,08,27,15,29,20.20
2016,08,27,15,30,20.30
2016,08,27,15,31,20.40
2016,08,27,15,32,20.50
2016,08,27,15,33,20.50
2016,08,27,15,34,20.50
2016,08,27,15,35,20.50
2016,08,27,15,36,20.50
2016,08,27,15,37,20.50
2016,08,27,15,38,20.40
2016,08,27,15,39,20.30
2016,08,27,15,40,20.30
2016,08,27,15,41,20.20
2016,08,27,15,42,20.10
2016,08,27,15,43,20.10
2016,08,27,15,44,20.10
2016,08,27,15,45,20.10
2016,08,27,15,46,20.20
2016,08,27,15,47,20.20
2016,08,27,15,48,20.20
2016,08,27,15,49,20.20
2016,08,27,15,50,20.20
2016,08,27,15,51,20.20
2016,08,27,15,52,20.20
2016,08,27,15,53,20.10
2016,08,27,15,54,20.20
2016,08,27,15,55,20.20
2016,08,27,15,56,20.20
2016,08,27,15,57,20.20
2016,08,27,15,58,20.20
2016,08,27,15,59,20.20
2016,08,27,16,00,20.20
2016,08,27,16,01,20.20
2016,08,27,16,02,20.20
2016,08,27,16,03,20.20
2016,08,27,16,04,20.20
2016,08,27,16,05,20.20
2016,08,27,16,06,20.10
2016,08,27,16,07,20.10
2016,08,27,16,08,20.00
2016,08,27,16,09,19.90
2016,08,27,16,10,19.90
2016,08,27,16,11,19.90
2016,08,27,16,12,19.90
2016,08,27,16,13,19.90
2016,08,27,16,14,19.90
2016,08,27,16,15,19.90
2016,08,27,16,16,19.80
2016,08,27,16,17,19.80
2016,08,27,16,18,19.90
2016,08,27,16,19,19.90
2016,08,27,16,20,19.90
2016,08,27,16,21,19.90
2016,08,27,16,22,20.00
2016,08,27,16,23,20.10
2016,08,27,16,24,20.20
2016,08,27,16,25,20.20
2016,08,27,16,26,20.30
2016,08,27,16,27,20.30
2016,08,27,16,28,20.30
2016,08,27,16,29,20.30
2016,08,27,16,30,20.30
2016,08,27,16,31,20.30
2016,08,27,16,32,20.20
2016,08,27,16,33,20.20
2016,08,27,16,34,20.20
2016,08,27,16,35,20.20
2016,08,27,16,36,20.20
2016,08,27,16,37,20.20
2016,08,27,16,38,20.20
2016,08,27,16,39,20.20
2016,08,27,16,40,20.20
2016,08,27,16,41,20.20
2016,08,27,16,42,20.10
2016,08,27,16,43,20.10
2016,08,27,16,44,20.10
2016,08,27,16,45,20.10
2016,08,27,16,46,19.90
2016,08,27,16,47,19.90
2016,08,27,16,48,19.90
2016,08,27,16,49,19.80
2016,08,27,16,50,19.80
2016,08,27,16,51,19.70
2016,08,27,16,52,19.70
2016,08,27,16,53,19.70
2016,08,27,16,54,19.70
2016,08,27,16,55,19.70
2016,08,27,16,56,19.70
2016,08,27,16,57,19.60
2016,08,27,16,58,19.70
2016,08,27,16,59,19.60
2016,08,27,17,00,19.60
2016,08,27,17,01,19.60
2016,08,27,17,02,19.60
2016,08,27,17,03,19.50
2016,08,27,17,04,19.50
2016,08,27,17,05,19.50
2016,08,27,17,06,19.50
2016,08,27,17,07,19.50
2016,08,27,17,08,19.40
2016,08,27,17,09,19.40
2016,08,27,17,10,19.40
2016,08,27,17,11,19.50
2016,08,27,17,12,19.40
2016,08,27,17,13,19.40
2016,08,27,17,14,19.40
2016,08,27,17,15,19.40
2016,08,27,17,16,19.40
2016,08,27,17,17,19.40
2016,08,27,17,18,19.30
2016,08,27,17,19,19.40